Date String (YYYY-MM-DD hh:mm:ss) UTC,Instrument flags,absolute air pressure of the measurement (hPa),sample flow rate (lpm),inlet stack bypass flow (lpm),air temperature of the measurement (°C),ambient temperature measured by the external sensor (°C),aerosol sample conditioner tube jacket temperature (°C),OPC LED temperature (°C),internal box temperature (°C),relative humidity of the measurement (%),span deviation,mass concentration of particles derived from Lorenz-Mie calculation of OPC scattering (μg/m³),mass concentration of particles derived from Lorenz-Mie calculation of OPC scattering (μg/m³),mass concentration of particles derived from Lorenz-Mie calculation of OPC scattering (μg/m³)
DateTimeUTC,F1_M11,P_M11,Q1_M11,Q2_M11,T1_M11,T2_M11,T3_M11,T4_M11,T5_M11,U1_M11,ZSPAN_M11,X0_M11,X2_M11,X1_M11
2023-12-16 22:00:00,SystemResetWarning,0830.4,5.00,000.00,025.7,024.6,000.0,033.9,027.0,7.9,0000.0,0000.66,0000.36,0000.22
2023-12-16 22:01:00,SystemResetWarning,0830.4,4.98,000.00,025.7,024.6,000.0,033.9,027.0,7.8,0000.0,0000.69,0000.37,0000.22
2023-12-16 22:02:00,SystemResetWarning,0830.4,5.00,000.00,025.7,024.6,000.0,033.9,027.0,8.0,0000.0,0000.64,0000.35,0000.22
2023-12-16 22:03:00,SystemResetWarning,0830.3,5.01,000.00,025.7,024.6,000.0,033.9,027.0,8.0,0000.0,0000.59,0000.33,0000.22
2023-12-16 22:04:00,SystemResetWarning,0830.3,5.01,000.00,025.7,024.6,000.0,033.9,027.1,7.9,0000.0,0000.65,0000.33,0000.22
2023-12-16 22:05:00,SystemResetWarning,0830.3,5.00,000.00,025.7,024.6,000.0,033.9,027.0,8.0,0000.0,0000.63,0000.32,0000.22
2023-12-16 22:06:00,SystemResetWarning,0830.3,5.00,000.00,025.7,024.6,000.0,033.9,027.0,8.1,0000.0,0000.60,0000.31,0000.22
2023-12-16 22:07:00,SystemResetWarning,0830.4,5.00,000.00,025.7,024.6,000.0,033.9,027.0,8.0,0000.0,0000.58,0000.31,0000.22
2023-12-16 22:08:00,SystemResetWarning,0830.3,4.99,000.00,025.7,024.6,000.0,033.9,027.0,8.0,0000.0,0000.56,0000.30,0000.21
2023-12-16 22:09:00,SystemResetWarning,0830.3,5.00,000.00,025.7,024.6,000.0,033.9,027.0,8.0,0000.0,0000.55,0000.29,0000.21
2023-12-16 22:10:00,SystemResetWarning,0830.3,5.00,000.00,025.7,024.6,000.0,033.9,027.0,7.9,0000.0,0000.62,0000.32,0000.22
2023-12-16 22:11:00,SystemResetWarning,0830.3,5.00,000.00,025.7,024.6,000.0,033.9,027.0,7.9,0000.0,0000.60,0000.31,0000.22
2023-12-16 22:12:00,SystemResetWarning,0830.3,5.00,000.00,025.7,024.6,000.0,033.9,027.0,8.1,0000.0,0000.57,0000.30,0000.22
2023-12-16 22:13:00,SystemResetWarning,0830.3,5.00,000.00,025.7,024.6,000.0,033.9,027.0,8.3,0000.0,0000.56,0000.30,0000.22
2023-12-16 22:14:00,SystemResetWarning,0830.3,5.01,000.00,025.7,024.6,000.0,033.9,027.1,8.2,0000.0,0000.54,0000.29,0000.21
2023-12-16 22:15:00,SystemResetWarning,0830.3,5.00,000.00,025.7,024.6,000.0,033.9,027.0,8.0,0000.0,0000.43,0000.28,0000.21
2023-12-16 22:16:00,SystemResetWarning,0830.2,4.99,000.00,025.7,024.6,000.0,033.9,027.1,7.8,0000.0,0000.41,0000.28,0000.21
2023-12-16 22:17:00,SystemResetWarning,0830.2,4.99,000.00,025.7,024.6,000.0,033.9,027.1,7.9,0000.0,0000.42,0000.28,0000.21
2023-12-16 22:18:00,SystemResetWarning,0830.2,5.00,000.00,025.7,024.7,000.0,033.9,027.1,8.2,0000.0,0000.39,0000.27,0000.21
2023-12-16 22:19:00,SystemResetWarning,0830.3,5.01,000.00,025.7,024.7,000.0,033.9,027.1,8.2,0000.0,0000.39,0000.27,0000.21
2023-12-16 22:20:00,SystemResetWarning,0830.3,5.01,000.00,025.7,024.7,000.0,033.9,027.1,8.2,0000.0,0000.39,0000.27,0000.22
2023-12-16 22:21:00,SystemResetWarning,0830.2,5.00,000.00,025.7,024.7,000.0,033.9,027.1,8.1,0000.0,0000.33,0000.24,0000.21
2023-12-16 22:22:00,SystemResetWarning,0830.3,5.01,000.00,025.7,024.7,000.0,033.9,027.1,8.0,0000.0,0000.30,0000.23,0000.21
2023-12-16 22:23:00,SystemResetWarning,0830.3,5.00,000.00,025.7,024.7,000.0,034.0,027.1,7.8,0000.0,0000.36,0000.26,0000.21
2023-12-16 22:24:00,SystemResetWarning,0830.3,5.00,000.00,025.8,024.7,000.0,034.0,027.1,7.7,0000.0,0000.39,0000.28,0000.21
2023-12-16 22:25:00,SystemResetWarning,0830.3,4.99,000.00,025.8,024.7,000.0,034.0,027.1,7.8,0000.0,0000.40,0000.28,0000.21
2023-12-16 22:26:00,SystemResetWarning,0830.3,5.00,000.00,025.8,024.7,000.0,034.0,027.1,8.0,0000.0,0000.37,0000.26,0000.21
2023-12-16 22:27:00,SystemResetWarning,0830.3,5.00,000.00,025.8,024.7,000.0,034.0,027.1,8.0,0000.0,0000.39,0000.27,0000.21
2023-12-16 22:28:00,SystemResetWarning,0830.2,4.99,000.00,025.8,024.7,000.0,034.0,027.2,8.0,0000.0,0000.39,0000.27,0000.21
2023-12-16 22:29:00,SystemResetWarning,0830.3,5.00,000.00,025.8,024.7,000.0,034.0,027.1,7.9,0000.0,0000.40,0000.28,0000.21
2023-12-16 22:30:00,SystemResetWarning,0830.3,5.00,000.00,025.8,024.7,000.0,034.0,027.1,8.2,0000.0,0000.42,0000.28,0000.21
2023-12-16 22:31:00,SystemResetWarning,0830.3,5.00,000.00,025.8,024.7,000.0,034.0,027.2,8.4,0000.0,0000.43,0000.28,0000.21
2023-12-16 22:32:00,SystemResetWarning,0830.3,5.00,000.00,025.8,024.8,000.0,034.0,027.2,8.3,0000.0,0000.43,0000.29,0000.21
2023-12-16 22:33:00,SystemResetWarning,0830.2,4.99,000.00,025.8,024.8,000.0,034.0,027.2,8.0,0000.0,0000.43,0000.28,0000.21
2023-12-16 22:34:00,SystemResetWarning,0830.3,4.99,000.00,025.8,024.8,000.0,034.0,027.2,8.0,0000.0,0000.37,0000.26,0000.21
2023-12-16 22:35:00,SystemResetWarning,0830.3,4.99,000.00,025.8,024.8,000.0,034.0,027.2,7.8,0000.0,0000.33,0000.24,0000.21
2023-12-16 22:36:00,SystemResetWarning,0830.2,5.00,000.00,025.8,024.8,000.0,034.0,027.2,7.6,0000.0,0000.33,0000.24,0000.21
2023-12-16 22:37:00,SystemResetWarning,0830.3,5.00,000.00,025.8,024.8,000.0,034.0,027.2,7.5,0000.0,0000.34,0000.24,0000.21
2023-12-16 22:38:00,SystemResetWarning,0830.3,5.00,000.00,025.8,024.8,000.0,034.0,027.2,7.9,0000.0,0000.35,0000.25,0000.21
2023-12-16 22:39:00,SystemResetWarning,0830.3,5.01,000.00,025.8,024.8,000.0,034.0,027.2,7.7,0000.0,0000.36,0000.25,0000.21
2023-12-16 22:40:00,SystemResetWarning,0830.3,4.99,000.00,025.9,024.8,000.0,034.0,027.2,7.9,0000.0,0000.41,0000.26,0000.21
2023-12-16 22:41:00,SystemResetWarning,0830.3,4.99,000.00,025.9,024.9,000.0,034.0,027.2,7.9,0000.0,0000.41,0000.25,0000.20
2023-12-16 22:42:00,SystemResetWarning,0830.3,5.00,000.00,025.9,024.9,000.0,034.0,027.3,8.1,0000.0,0000.45,0000.26,0000.20
2023-12-16 22:43:00,SystemResetWarning,0830.3,5.00,000.00,025.9,024.9,000.0,034.1,027.3,8.1,0000.0,0000.52,0000.29,0000.20
2023-12-16 22:44:00,SystemResetWarning,0830.3,5.00,000.00,025.9,024.9,000.0,034.1,027.3,8.1,0000.0,0000.57,0000.30,0000.20
2023-12-16 22:45:00,SystemResetWarning,0830.3,5.00,000.00,025.9,024.9,000.0,034.1,027.3,8.1,0000.0,0000.60,0000.31,0000.20
2023-12-16 22:46:00,SystemResetWarning,0830.3,5.00,000.00,025.9,025.0,000.0,034.1,027.3,8.2,0000.0,0000.65,0000.32,0000.20
2023-12-16 22:47:00,SystemResetWarning,0830.3,5.00,000.00,025.9,025.0,000.0,034.1,027.3,8.2,0000.0,0000.71,0000.34,0000.20
2023-12-16 22:48:00,SystemResetWarning,0830.3,4.99,000.00,025.9,025.0,000.0,034.1,027.3,8.2,0000.0,0000.73,0000.35,0000.20
2023-12-16 22:49:00,SystemResetWarning,0830.3,5.00,000.00,026.0,025.0,000.0,034.1,027.4,8.2,0000.0,0000.72,0000.34,0000.20
2023-12-16 22:50:00,SystemResetWarning,0830.3,5.00,000.00,026.0,025.0,000.0,034.1,027.4,8.2,0000.0,0000.69,0000.33,0000.20
2023-12-16 22:51:00,SystemResetWarning,0830.3,5.02,000.00,026.0,025.0,000.0,034.1,027.4,8.1,0000.0,0000.69,0000.33,0000.20
2023-12-16 22:52:00,SystemResetWarning,0830.4,5.00,000.00,026.0,025.0,000.0,034.1,027.4,8.5,0000.0,0000.66,0000.33,0000.21
2023-12-16 22:53:00,SystemResetWarning,0830.4,4.99,000.00,026.0,025.0,000.0,034.2,027.4,8.7,0000.0,0000.64,0000.33,0000.21
2023-12-16 22:54:00,SystemResetWarning,0830.4,4.99,000.00,026.0,025.1,000.0,034.2,027.4,8.6,0000.0,0000.59,0000.31,0000.21
2023-12-16 22:55:00,SystemResetWarning,0830.5,5.01,000.00,026.0,025.1,000.0,034.2,027.5,8.7,0000.0,0000.57,0000.31,0000.22
2023-12-16 22:56:00,SystemResetWarning,0830.6,5.00,000.00,026.0,025.1,000.0,034.2,027.5,8.7,0000.0,0000.65,0000.30,0000.22
2023-12-16 22:57:00,SystemResetWarning,0830.4,4.99,000.00,026.1,025.1,000.0,034.2,027.5,8.6,0000.0,0001.95,0000.31,0000.23
2023-12-16 22:58:00,SystemResetWarning,0830.7,5.00,000.00,026.1,025.1,000.0,034.2,027.5,8.7,0000.0,0001.92,0000.30,0000.24
2023-12-16 22:59:00,SystemResetWarning,0830.4,5.00,000.00,026.1,025.2,000.0,034.2,027.5,9.2,0000.0,0001.89,0000.29,0000.24
